Temp
-5 -5 -4 -4 -4 -4 -4 -4 -4 -4 -4 -4 -4 -4 -4 -4 -4 -5 -5 -5 -4 -4 -5 -5 -5 -5 -5 -5 -5 -5 -4 -5 -4 -4 -3 -3 -3 -3 -3 -3 -3 -4 -4 -5 -5
-5 -5 -5 -4 -4 -4 -4 -4 -4 -4 -4 -4 -4 -4 -4 -4 -4 -4 -5 -5 -5 -4 -5 -5 -5 -5 -5 -5 -5 -4 -4 -4 -4 -3 -3 -3 -3 -3 -3 -3 -3 -3 -4 -4 -4
-5 -5 -5 -4 -4 -4 -4 -4 -4 -4 -3 -4 -4 -4 -4 -4 -4 -4 -4 -5 -5 -5 -5 -5 -5 -5 -5 -5 -5 -5 -4 -4 -5 -4 -3 -4 -4 -3 -3 -3 -3 -4 -4 -4 -4
-5 -5 -5 -5 -5 -4 -4 -4 -4 -4 -3 -3 -4 -4 -4 -4 -4 -4 -4 -5 -5 -6 -5 -5 -5 -5 -6 -6 -6 -5 -5 -5 -5 -4 -4 -3 -3 -3 -4 -3 -3 -3 -4 -4 -4
-5 -5 -5 -5 -5 -4 -4 -4 -4 -4 -4 -4 -4 -4 -4 -4 -4 -4 -4 -5 -5 -6 -6 -5 -5 -5 -6 -6 -6 -5 -5 -5 -6 -5 -4 -3 -3 -3 -3 -3 -3 -3 -3 -4 -3
-5 -5 -5 -5 -5 -5 -5 -4 -4 -4 -4 -4 -4 -4 -4 -4 -4 -4 -5 -5 -5 -5 -6 -6 -5 -5 -6 -6 -6 -6 -5 -5 -5 -5 -4 -4 -3 -3 -3 -3 -3 -3 -3 -3 -3
-5 -5 -5 -5 -5 -5 -5 -5 -5 -4 -4 -4 -4 -4 -4 -5 -5 -5 -5 -5 -5 -6 -6 -6 -6 -6 -6 -6 -6 -4 -4 -5 -5 -5 -5 -5 -4 -4 -3 -3 -3 -3 -3 -3 -3
-6 -6 -5 -5 -5 -5 -5 -5 -5 -5 -4 -4 -5 -5 -5 -5 -5 -5 -5 -5 -5 -5 -6 -6 -6 -6 -6 -6 -6 -6 -6 -5 -5 -5 -6 -5 -7 -5 -4 -4 -3 -3 -3 -3 -3
-5 -6 -6 -6 -6 -6 -6 -5 -5 -5 -5 -5 -5 -5 -5 -5 -5 -5 -5 -5 -6 -6 -6 -6 -6 -6 -6 -7 -7 -6 -7 -6 -6 -5 -5 -6 -6 -5 -5 -4 -3 -3 -3 -3 -3
-5 -6 -6 -6 -6 -6 -6 -6 -6 -5 -5 -5 -5 -5 -5 -6 -6 -5 -5 -6 -6 -6 -6 -6 -7 -7 -7 -7 -7 -6 -8 -6 -6 -6 -6 -6 -6 -6 -5 -4 -3 -3 -3 -3 -3
-6 -6 -7 -6 -6 -7 -7 -7 -7 -6 -6 -6 -6 -6 -6 -6 -6 -6 -6 -6 -7 -7 -7 -7 -7 -7 -7 -7 -9 -8 -8 -7 -6 -6 -6 -7 -7 -6 -6 -5 -4 -3 -3 -3 -3
-6 -6 -6 -7 -7 -7 -8 -7 -7 -7 -7 -6 -6 -6 -6 -6 -6 -6 -6 -7 -7 -8 -7 -7 -7 -7 -7 -7 -7 -8 -8 -7 -7 -7 -7 -7 -7 -7 -7 -5 -5 -4 -3 -3 -3
-6 -7 -7 -7 -7 -7 -8 -8 -8 -7 -7 -7 -7 -7 -7 -7 -6 -6 -7 -7 -7 -8 -8 -8 -8 -7 -7 -7 -7 -8 -8 -9 -8 -7 -7 -7 -7 -7 -7 -6 -5 -5 -3 -3 -3
-6 -7 -7 -7 -8 -8 -8 -8 -8 -8 -8 -8 -8 -8 -8 -7 -7 -7 -7 -7 -8 -8 -8 -8 -7 -8 -8 -7 -7 -8 -8 -8 -8 -8 -8 -7 -8 -7 -7 -6 -5 -5 -5 -3 -3
-6 -7 -7 -8 -8 -8 -8 -9 -9 -10 -10 -9 -9 -9 -8 -8 -8 -7 -7 -8 -8 -8 -9 -8 -8 -8 -8 -8 -8 -8 -7 -8 -8 -7 -8 -7 -7 -7 -7 -6 -6 -6 -5 -4 -3
-7 -7 -7 -8 -8 -9 -9 -10 -10 -10 -10 -10 -9 -9 -9 -9 -9 -8 -8 -8 -8 -9 -9 -9 -8 -8 -8 -8 -8 -8 -7 -8 -8 -8 -9 -8 -8 -8 -7 -6 -7 -7 -6 -5 -4
-7 -7 -8 -8 -9 -9 -9 -10 -10 -11 -11 -10 -10 -10 -10 -10 -10 -9 -9 -9 -9 -9 -9 -9 -9 -8 -8 -8 -8 -8 -8 -8 -8 -8 -9 -9 -8 -8 -7 -7 -7 -7 -6 -5 -5
-7 -8 -8 -9 -9 -9 -9 -11 -10 -11 -11 -11 -10 -11 -11 -10 -10 -10 -10 -9 -9 -9 -9 -9 -9 -9 -8 -8 -8 -8 -8 -9 -10 -9 -9 -8 -7 -6 -7 -7 -7 -7 -7 -6 -5
-7 -8 -8 -9 -9 -9 -9 -11 -11 -12 -12 -12 -12 -11 -11 -11 -11 -11 -11 -10 -10 -10 -10 -10 -10 -9 -9 -9 -9 -8 -8 -8 -10 -10 -9 -8 -8 -6 -7 -7 -8 -7 -7 -7 -6
-8 -8 -9 -9 -10 -10 -10 -10 -11 -12 -13 -13 -13 -12 -12 -12 -12 -11 -11 -11 -11 -10 -10 -10 -11 -10 -9 -9 -9 -9 -8 -8 -9 -10 -10 -9 -9 -6 -7 -8 -8 -8 -7 -7 -6
-8 -9 -9 -9 -10 -10 -10 -10 -11 -12 -13 -14 -14 -13 -13 -12 -12 -12 -12 -12 -12 -11 -11 -11 -11 -10 -10 -10 -10 -9 -9 -8 -10 -9 -10 -9 -9 -7 -8 -7 -8 -8 -7 -7 -6
-8 -9 -9 -9 -10 -10 -10 -10 -11 -12 -14 -14 -14 -14 -14 -13 -13 -13 -13 -12 -12 -12 -12 -11 -12 -14 -13 -10 -10 -10 -9 -9 -10 -9 -9 -10 -9 -10 -7 -7 -8 -8 -8 -8 -7
-9 -9 -10 -10 -10 -11 -11 -11 -12 -13 -14 -15 -14 -14 -14 -14 -13 -13 -13 -12 -12 -12 -12 -12 -12 -14 -13 -11 -11 -11 -10 -10 -9 -9 -10 -11 -10 -10 -8 -7 -8 -8 -8 -7 -7
-9 -10 -10 -10 -10 -11 -11 -11 -12 -13 -13 -13 -13 -14 -14 -14 -14 -14 -13 -13 -13 -13 -13 -13 -13 -13 -14 -14 -13 -11 -11 -10 -10 -11 -11 -11 -11 -11 -8 -7 -7 -8 -8 -8 -7
-10 -10 -10 -10 -11 -12 -12 -12 -12 -13 -13 -14 -14 -13 -13 -13 -13 -13 -13 -13 -13 -13 -13 -13 -13 -13 -13 -14 -14 -13 -12 -12 -11 -11 -10 -12 -11 -11 -8 -8 -7 -7 -8 -8 -8
-11 -11 -11 -11 -11 -12 -12 -12 -13 -13 -13 -14 -14 -14 -14 -14 -14 -14 -14 -14 -14 -14 -14 -14 -14 -13 -13 -13 -14 -14 -13 -12 -12 -12 -11 -11 -11 -10 -9 -8 -8 -8 -7 -8 -8
-11 -11 -12 -12 -12 -12 -12 -13 -12 -13 -13 -14 -14 -14 -14 -14 -15 -15 -15 -15 -14 -14 -15 -15 -14 -14 -14 -14 -14 -14 -14 -14 -13 -12 -12 -12 -12 -10 -10 -9 -9 -8 -8 -8 -8
Height
5883 5882 5882 5881 5881 5882 5882 5882 5882 5882 5882 5883 5883 5884 5885 5886 5887 5888 5889 5892 5893 5894 5896 5898 5899 5902 5903 5904 5906 5907 5909 5910 5912 5911 5913 5913 5914 5914 5914 5915 5916 5916 5916 5916 5915
5882 5881 5880 5879 5879 5880 5879 5880 5881 5880 5879 5880 5881 5881 5883 5885 5886 5887 5889 5890 5892 5893 5895 5898 5899 5901 5904 5904 5906 5909 5910 5911 5913 5912 5914 5915 5915 5916 5917 5918 5919 5919 5919 5918 5917
5881 5880 5879 5878 5877 5877 5878 5879 5879 5878 5878 5878 5879 5880 5880 5882 5884 5885 5887 5888 5890 5891 5893 5896 5898 5900 5903 5905 5908 5910 5912 5912 5914 5914 5915 5917 5917 5918 5919 5920 5920 5922 5922 5922 5921
5878 5877 5876 5875 5875 5874 5874 5876 5877 5876 5876 5876 5877 5878 5878 5879 5882 5883 5884 5887 5889 5890 5891 5894 5897 5900 5902 5905 5908 5910 5912 5914 5915 5915 5916 5918 5918 5920 5921 5922 5922 5923 5923 5924 5924
5874 5874 5873 5872 5871 5871 5870 5871 5872 5874 5874 5874 5874 5874 5875 5876 5878 5879 5882 5884 5886 5889 5890 5891 5895 5898 5902 5904 5907 5909 5911 5913 5915 5916 5917 5919 5920 5921 5922 5923 5924 5924 5924 5925 5926
5869 5869 5869 5869 5869 5868 5868 5867 5868 5869 5870 5871 5871 5871 5872 5873 5874 5875 5878 5881 5884 5886 5888 5890 5892 5897 5902 5904 5907 5909 5909 5912 5914 5916 5918 5918 5919 5920 5922 5924 5925 5926 5926 5926 5927
5865 5864 5863 5863 5864 5863 5863 5864 5864 5865 5865 5867 5867 5868 5868 5870 5870 5871 5874 5877 5880 5883 5885 5888 5891 5895 5899 5902 5905 5906 5910 5910 5913 5915 5917 5919 5919 5920 5921 5923 5925 5926 5927 5928 5929
5861 5859 5858 5857 5857 5857 5857 5858 5858 5859 5860 5861 5862 5863 5864 5865 5866 5867 5869 5871 5875 5878 5882 5886 5889 5893 5896 5901 5903 5905 5908 5911 5913 5914 5916 5919 5922 5920 5921 5923 5924 5926 5927 5929 5929
5856 5854 5853 5852 5851 5850 5850 5851 5852 5852 5853 5855 5857 5857 5859 5861 5862 5863 5864 5867 5871 5875 5879 5883 5887 5891 5895 5898 5901 5904 5906 5910 5913 5914 5916 5919 5922 5920 5921 5922 5924 5925 5927 5928 5929
5849 5849 5847 5846 5845 5844 5843 5843 5844 5845 5846 5848 5850 5853 5853 5856 5857 5858 5859 5862 5866 5871 5875 5879 5884 5888 5891 5894 5899 5902 5908 5906 5910 5912 5915 5916 5918 5919 5921 5922 5923 5924 5925 5927 5928
5845 5844 5842 5840 5838 5836 5836 5837 5838 5840 5840 5841 5843 5845 5847 5850 5852 5853 5855 5857 5861 5865 5870 5875 5879 5884 5887 5889 5890 5896 5903 5906 5906 5909 5913 5915 5916 5918 5921 5923 5923 5923 5924 5926 5928
5841 5838 5835 5833 5830 5829 5829 5830 5831 5833 5833 5834 5835 5838 5841 5843 5846 5848 5851 5853 5856 5860 5864 5871 5874 5876 5879 5886 5890 5893 5897 5901 5905 5907 5910 5912 5915 5917 5919 5921 5923 5925 5924 5924 5927
5837 5834 5831 5827 5824 5823 5823 5823 5824 5825 5827 5827 5828 5831 5834 5837 5840 5843 5845 5848 5850 5855 5860 5865 5867 5871 5875 5880 5886 5890 5894 5896 5901 5903 5908 5910 5913 5916 5917 5919 5921 5924 5924 5923 5925
5832 5829 5825 5822 5820 5817 5816 5815 5815 5816 5819 5821 5821 5823 5827 5830 5833 5837 5840 5843 5846 5850 5854 5858 5861 5866 5870 5874 5880 5885 5888 5891 5895 5901 5907 5909 5915 5912 5915 5919 5920 5921 5923 5923 5923
5827 5824 5821 5817 5816 5814 5811 5808 5809 5810 5811 5813 5815 5818 5820 5824 5828 5830 5834 5838 5840 5844 5851 5852 5858 5861 5864 5868 5874 5879 5883 5887 5890 5895 5900 5905 5908 5913 5913 5917 5919 5919 5921 5922 5922
5823 5820 5817 5814 5811 5809 5805 5804 5803 5805 5805 5809 5810 5812 5816 5818 5821 5824 5828 5833 5836 5839 5844 5844 5851 5856 5859 5862 5868 5870 5879 5883 5887 5892 5894 5900 5904 5909 5913 5916 5916 5916 5918 5920 5922
5819 5815 5812 5810 5805 5800 5798 5798 5799 5799 5800 5803 5805 5808 5810 5814 5816 5819 5823 5827 5831 5835 5838 5840 5845 5849 5855 5859 5864 5869 5873 5879 5883 5884 5888 5898 5896 5904 5907 5910 5912 5914 5915 5917 5921
5814 5810 5808 5805 5801 5797 5792 5793 5793 5794 5795 5797 5800 5803 5806 5809 5811 5814 5818 5822 5825 5829 5833 5836 5840 5844 5849 5853 5858 5863 5868 5874 5879 5884 5888 5887 5888 5900 5905 5905 5906 5910 5912 5916 5920
5809 5805 5803 5800 5797 5794 5791 5788 5788 5789 5791 5793 5796 5798 5801 5804 5807 5810 5813 5815 5819 5823 5827 5831 5833 5838 5842 5846 5852 5856 5861 5869 5870 5875 5879 5887 5886 5896 5898 5900 5902 5905 5908 5912 5915
5804 5800 5797 5795 5792 5791 5789 5785 5783 5784 5785 5787 5790 5794 5797 5799 5802 5805 5807 5810 5813 5816 5819 5823 5827 5830 5835 5839 5844 5848 5853 5859 5863 5868 5874 5881 5883 5889 5893 5898 5895 5901 5905 5907 5910
5797 5794 5791 5789 5788 5786 5784 5781 5779 5779 5779 5782 5785 5789 5792 5794 5797 5799 5801 5805 5807 5810 5813 5817 5822 5824 5828 5832 5835 5841 5845 5852 5858 5862 5870 5875 5879 5881 5885 5888 5893 5897 5901 5903 5906
5790 5788 5784 5782 5782 5780 5778 5776 5774 5773 5774 5776 5779 5782 5785 5789 5791 5793 5796 5799 5802 5805 5808 5811 5815 5819 5823 5821 5826 5831 5837 5841 5848 5855 5859 5868 5876 5870 5876 5882 5887 5892 5895 5898 5901
5784 5781 5777 5776 5774 5773 5772 5771 5769 5769 5770 5771 5774 5777 5780 5782 5786 5787 5790 5794 5797 5799 5802 5806 5810 5814 5814 5817 5819 5823 5827 5833 5839 5845 5851 5857 5867 5863 5868 5875 5880 5886 5890 5892 5895
5777 5773 5771 5768 5766 5764 5765 5764 5764 5763 5765 5766 5768 5770 5774 5776 5779 5782 5784 5788 5791 5793 5796 5799 5802 5806 5815 5812 5813 5814 5818 5823 5830 5836 5843 5848 5858 5854 5862 5867 5873 5879 5883 5888 5889
5767 5765 5762 5760 5759 5758 5757 5759 5757 5757 5758 5759 5761 5764 5767 5769 5772 5775 5778 5782 5784 5786 5789 5792 5794 5798 5799 5802 5804 5805 5809 5813 5819 5823 5829 5841 5842 5839 5854 5859 5865 5872 5877 5881 5885
5758 5756 5753 5752 5750 5749 5749 5750 5750 5750 5751 5753 5755 5758 5760 5762 5764 5767 5769 5772 5774 5778 5780 5783 5784 5788 5792 5795 5797 5799 5802 5805 5809 5813 5818 5825 5830 5836 5844 5851 5858 5863 5869 5875 5879
5746 5745 5742 5742 5740 5740 5740 5741 5743 5743 5744 5746 5749 5751 5752 5755 5757 5759 5761 5763 5766 5768 5770 5774 5776 5781 5784 5783 5787 5791 5795 5798 5800 5803 5809 5815 5817 5826 5833 5843 5849 5855 5861 5866 5871
Wind_Speed
11 9 8 6 6 7 6 6 6 6 6 6 8 9 8 8 8 6 4 7 10 13 19 16 13 10 7 7 9 6 9 11 9 10 11 16 17 14 12 13 13 13 12 12 14
13 12 11 10 8 7 6 5 6 6 5 4 4 8 9 10 9 9 8 6 9 11 16 19 13 12 9 7 6 9 11 10 8 10 12 14 14 13 12 12 12 12 12 12 13
14 15 14 12 12 11 9 7 5 7 6 3 3 2 8 11 11 11 10 9 8 12 14 21 18 14 10 9 9 11 11 12 8 10 13 14 14 13 12 12 12 12 11 12 13
15 14 15 15 13 14 13 12 10 8 8 7 5 4 4 8 13 14 13 12 10 12 15 19 23 18 12 11 12 9 9 10 9 9 12 14 16 13 11 10 12 11 12 11 11
18 18 16 15 15 15 15 16 14 11 10 8 8 8 7 9 11 16 16 15 15 12 15 18 23 24 16 15 15 14 8 13 12 7 9 10 13 13 11 11 10 10 11 11 10
19 19 20 18 17 17 17 16 18 15 13 13 10 10 9 10 12 15 19 19 17 17 15 18 20 23 21 17 16 20 13 20 15 11 7 5 10 13 12 11 10 9 8 10 9
16 18 19 19 21 21 19 19 17 17 16 15 15 13 12 10 13 17 20 22 21 20 20 18 19 19 23 20 16 19 22 13 15 12 11 8 6 10 12 12 11 10 9 8 9
18 16 17 18 18 22 22 21 21 21 19 19 18 17 14 13 13 16 21 25 26 24 24 21 18 19 22 20 17 15 17 14 12 13 11 8 7 8 10 11 12 11 10 9 8
23 22 20 19 21 21 21 23 23 22 22 22 21 19 18 16 15 16 19 24 27 27 24 25 22 18 18 21 21 20 13 14 18 17 17 12 11 11 9 12 12 12 11 11 10
19 19 23 25 24 24 24 24 24 25 22 23 23 21 20 17 17 18 19 24 27 27 27 25 25 21 19 20 18 21 14 16 24 24 18 14 14 14 11 12 15 14 14 13 12
21 20 20 22 26 25 24 24 23 24 24 23 22 23 21 20 18 17 19 24 29 29 29 27 25 25 23 25 30 26 23 22 22 22 20 18 18 16 11 10 12 16 16 16 12
22 19 18 19 21 24 22 22 22 23 24 25 23 23 22 21 20 20 20 23 28 31 30 28 27 31 32 26 23 23 24 25 23 20 21 20 19 19 17 13 7 12 14 16 15
23 21 21 22 22 23 22 20 21 21 23 24 24 23 22 22 22 22 22 23 28 32 32 30 34 30 30 32 30 26 25 29 27 30 21 21 20 20 22 16 12 8 10 10 13
25 24 22 21 21 23 24 22 21 21 23 25 26 25 24 24 23 22 23 23 26 31 33 35 36 33 33 32 33 32 30 29 29 26 24 25 16 26 24 18 14 10 11 11 8
28 26 24 21 19 21 21 18 17 17 22 26 26 24 26 26 23 23 22 23 24 26 31 37 35 35 36 34 33 33 35 31 32 34 28 29 28 15 26 18 15 13 12 11 11
29 26 23 21 21 24 25 18 13 15 21 21 23 26 25 26 26 23 23 23 22 23 27 36 35 36 36 38 34 37 31 35 32 31 33 33 28 24 21 17 19 18 16 12 11
28 25 23 23 22 20 19 17 13 18 16 20 22 24 26 26 25 23 23 22 24 23 27 30 32 36 36 35 36 34 33 32 36 36 33 23 34 31 26 25 22 22 20 16 15
27 22 23 23 21 20 13 15 14 14 18 17 20 22 23 23 24 24 23 23 23 26 25 29 32 34 36 36 35 35 35 29 25 27 27 32 39 30 26 28 26 21 21 17 13
27 23 22 24 21 20 14 9 14 13 16 20 19 20 21 21 21 22 22 23 24 26 28 27 34 33 36 37 36 37 37 34 27 24 29 27 33 33 33 30 23 19 19 18 17
26 24 23 24 22 20 15 10 12 12 17 23 22 21 19 19 21 22 22 21 22 25 27 28 28 32 36 38 38 39 39 39 40 31 25 27 26 27 32 28 28 22 20 19 17
26 25 25 25 23 20 17 14 12 12 15 23 23 23 20 19 19 20 20 19 20 22 24 26 25 29 32 35 36 39 40 41 34 34 24 23 21 30 31 30 30 28 23 21 19
25 25 26 24 22 20 18 16 12 12 18 25 28 26 24 21 21 21 21 21 20 20 21 23 24 14 21 38 38 39 41 43 39 42 42 24 22 27 34 32 33 28 25 27 30
27 26 24 24 22 19 18 18 14 14 16 18 25 25 24 25 26 26 25 24 24 23 22 24 23 19 24 33 36 36 40 41 43 44 32 31 29 27 32 36 34 34 27 31 33
27 26 25 24 22 19 18 19 17 17 20 24 25 27 28 29 29 28 28 27 26 25 25 26 27 26 18 24 24 37 38 39 39 37 37 30 24 34 39 35 37 39 34 31 36
28 26 24 24 23 19 18 22 19 20 23 26 27 27 29 31 30 30 29 28 27 27 28 29 31 29 34 33 36 39 37 39 38 42 43 26 35 44 40 39 37 39 37 36 33
30 29 26 26 26 23 21 23 24 22 24 26 28 28 28 30 29 27 27 28 29 26 27 29 35 32 32 34 35 37 40 42 42 42 42 44 41 46 44 42 37 39 39 39 37
29 31 30 28 26 25 26 25 28 26 25 26 26 27 29 29 28 27 28 28 27 27 28 29 32 30 32 37 37 38 37 42 45 47 43 40 45 48 42 45 43 38 39 41 42
Wind_Direction
332 331 332 330 315 301 290 290 302 303 290 282 261 256 251 246 235 222 198 182 186 189 183 182 173 166 153 147 154 159 113 117 128 128 153 158 149 144 134 123 116 118 110 102 92
320 318 313 312 306 294 278 286 305 304 307 300 281 246 244 244 249 239 222 201 183 190 193 189 188 186 177 170 162 160 128 129 133 133 145 160 152 149 144 132 120 112 109 102 96
309 307 303 302 297 292 275 261 272 288 293 312 321 265 250 242 238 242 235 229 194 188 188 190 197 199 190 177 157 151 131 116 142 137 153 161 160 160 155 147 136 132 112 97 94
302 299 293 293 283 281 271 268 276 268 264 268 274 289 273 251 234 233 236 224 220 202 193 194 197 203 193 174 170 183 171 154 126 136 154 162 158 158 163 163 153 144 132 112 95
299 296 292 287 283 276 274 263 264 266 258 251 267 268 264 251 234 229 228 226 219 214 208 199 200 205 196 192 191 199 212 197 178 163 135 168 169 165 169 171 168 156 143 129 110
301 298 290 281 278 280 275 271 263 259 257 253 253 254 257 254 235 227 226 224 221 216 217 212 206 202 205 203 196 205 203 188 199 198 186 182 183 176 173 180 175 171 163 149 133
301 298 294 290 273 269 271 269 259 257 253 254 258 251 251 249 243 225 221 220 217 216 214 220 215 206 207 210 202 193 194 201 182 197 189 177 182 187 184 182 182 182 168 177 155
303 292 285 285 283 269 264 264 262 256 248 247 254 253 246 250 249 228 220 218 216 213 217 215 218 216 208 207 211 203 219 187 180 189 197 159 204 205 211 200 189 192 184 177 174
295 296 295 286 279 272 267 263 259 256 249 245 249 250 247 245 243 230 223 221 218 216 214 217 214 217 213 211 212 219 218 200 201 208 205 183 200 205 210 225 212 198 193 187 182
305 291 286 287 285 274 269 264 259 255 247 245 249 249 247 248 247 231 219 217 216 219 216 216 216 212 212 218 222 218 204 211 215 188 195 206 216 221 211 223 224 209 203 192 197
320 310 296 288 286 284 272 266 260 254 251 248 246 244 244 241 250 234 220 216 211 214 219 215 214 214 214 213 204 215 209 207 221 191 197 199 216 229 225 221 235 219 209 199 195
324 319 307 298 290 289 281 269 260 258 252 248 244 241 242 240 242 238 218 216 215 213 215 215 215 212 217 216 220 216 221 222 218 202 189 201 209 228 226 226 245 260 220 201 195
327 319 305 298 291 290 290 274 265 259 251 247 240 235 234 233 234 237 228 215 215 214 213 212 216 213 214 217 216 223 217 218 216 224 201 202 218 226 228 229 239 259 259 218 196
329 324 311 303 300 295 291 281 266 254 245 242 234 228 226 229 232 234 230 220 215 217 214 214 215 215 216 216 218 218 225 226 225 225 215 215 219 228 231 231 241 247 271 254 206
330 328 319 313 312 311 300 291 274 249 237 233 230 227 223 224 225 227 230 226 218 216 216 222 217 218 217 216 217 218 219 226 224 229 221 229 221 227 226 223 231 240 250 252 238
333 327 324 321 321 309 294 286 268 242 242 241 232 228 225 222 221 220 225 225 220 212 214 225 219 219 222 220 214 222 221 225 230 229 235 228 230 222 227 223 222 228 236 229 238
334 330 324 325 326 318 293 267 259 239 230 232 233 226 225 223 220 218 219 225 225 215 215 220 221 222 223 227 222 221 224 226 227 229 237 234 238 217 218 216 222 223 236 231 223
330 326 324 327 331 336 321 256 252 253 237 228 226 224 222 219 220 221 221 224 225 223 224 219 225 224 223 224 225 222 225 225 234 232 239 238 237 216 212 211 222 224 235 242 245
328 319 316 317 328 327 334 265 252 253 237 227 221 219 218 216 221 222 217 219 221 224 224 222 230 225 226 225 225 228 223 224 224 222 212 239 250 224 215 213 217 228 234 239 249
323 314 311 314 318 317 316 289 254 253 243 221 216 217 221 219 223 225 223 217 219 223 223 222 233 228 227 229 227 227 225 227 231 230 231 231 233 230 234 233 233 222 225 231 228
318 319 310 310 313 308 303 295 274 254 227 214 215 209 209 217 217 227 230 225 220 222 224 226 222 231 228 230 232 227 229 229 229 231 231 234 248 241 227 222 222 225 223 225 232
312 314 312 307 307 297 291 286 273 251 229 218 216 209 209 220 226 228 229 225 226 226 227 224 215 221 222 230 231 232 226 227 229 231 234 210 221 241 227 221 213 213 208 219 228
307 313 310 302 301 288 276 271 254 225 201 199 200 205 215 221 229 234 235 232 231 230 230 229 222 219 237 236 232 233 232 229 230 230 225 232 228 238 230 217 215 211 207 219 229
300 308 308 300 297 279 266 257 249 234 224 213 210 212 220 226 230 234 237 238 236 236 236 234 232 215 208 219 225 234 234 232 227 228 229 233 211 233 228 222 215 214 220 217 233
295 298 302 300 294 271 263 251 240 231 228 227 229 228 229 234 235 237 238 238 238 239 242 241 240 229 227 220 221 232 233 232 230 226 224 219 224 228 229 228 221 213 216 218 226
291 291 296 296 289 270 255 249 240 233 230 230 233 236 239 242 246 248 249 247 246 248 241 237 241 240 235 233 234 236 237 238 234 233 231 226 228 233 231 231 228 222 214 214 218
286 288 287 289 280 267 255 244 242 240 236 234 235 236 240 243 245 248 253 255 253 244 240 235 238 237 238 244 237 238 239 239 238 237 235 230 226 230 231 227 228 228 222 215 222